Location: McMath-Hulbert Observatory
(42.6964°N, 83.3187°W)
Time: 23:57:47
(UTC-04:00)

Daily predictions for brighter satellites

Satellite Brightness Start Highest point End
(mag) Time Altitude Azimuth Time Altitude Azimuth Time Altitude Azimuth
CZ-2C R/B 3.7 19:10:52 10° NNE 19:15:27 85° ESE 19:19:55 10° SSW
Cosmos 1452 Rocket 4.3 19:12:29 10° N 19:17:08 31° ENE 19:21:45 10° ESE
Cosmos 1743 Rocket 3.9 19:13:58 10° N 19:18:09 43° ENE 19:22:21 10° SSE
COSMOS 2428 4.0 19:14:03 10° N 19:18:13 20° NE 19:22:21 10° E
Cosmos 2333 Rocket 4.0 19:18:40 10° NNE 19:21:13 13° NE 19:23:46 10° ENE
Cosmos 1766 Rocket 3.9 19:16:46 10° NNW 19:21:14 75° W 19:25:41 10° S
BREEZE-M DEB (TANK) 1.8 19:19:24 10° SW 19:22:00 52° SSE 19:23:54 10° ENE
Cosmos 2360 Rocket 2.6 19:16:59 10° NNW 19:22:20 42° ENE 19:27:41 10° SE
Abrixas rocket 2.6 19:19:57 10° WSW 19:23:12 57° NNW 19:26:27 10° ENE
Cosmos 1315 Rocket 3.9 19:21:44 10° NNE 19:25:06 24° ENE 19:28:28 10° SE
Cosmos 1626 2.3 19:21:41 10° N 19:25:20 47° E 19:28:57 10° SSE
Cosmos 1842 Rocket 3.9 19:22:17 10° SSE 19:26:32 44° E 19:30:46 10° NNE
deb Kosmos-1763 4.4 19:24:34 10° SSW 19:28:23 73° WNW 19:32:14 10° NNE
Cosmos 2322 Rocket 2.5 19:23:36 10° NNW 19:29:13 75° WSW 19:34:49 10° SSE
Meteor 2-21 Rocket 4.5 19:24:08 10° S 19:30:13 89° E 19:36:20 10° N
DELTA 2 R/B (1) 3.8 19:25:54 10° W 19:31:26 65° S 19:36:42 11° E
Cosmos 2221 3.6 19:30:27 10° SE 19:33:51 23° E 19:37:17 10° NE
Cosmos 2366 rocket 4.0 19:33:17 10° S 19:39:31 82° E 19:45:43 10° N
Cosmos 1500 Rocket 3.6 19:35:55 10° N 19:40:14 57° E 19:44:28 10° SSE
RESURS DK-1 2.7 19:38:16 10° NNW 19:42:15 45° ENE 19:46:13 10° SE
Cosmos 2058 2.9 19:38:20 10° N 19:42:30 59° E 19:46:36 10° SSE
EO 1 Del DPAF 3.4 19:38:45 10° N 19:42:37 77° WNW 19:46:26 10° SSW
Cosmos 921 Rocket 3.6 19:38:30 10° N 19:42:42 38° ENE 19:46:48 10° SE
Meteor 1-11 4.4 19:37:01 10° NNW 19:42:50 84° W 19:48:33 10° S
Cosmos 1461 4.1 19:39:35 10° WSW 19:43:24 40° NW 19:47:25 10° NNE
Cosmos 44 4.5 19:43:17 10° SSE 19:46:10 17° ESE 19:46:58 17° E
Lacrosse 5 rocket 3.6 19:45:10 10° WNW 19:48:31 20° NNW 19:51:46 10° NNE
USA 234 4.5 19:43:40 11° ENE 19:48:44 28° NNE 19:54:05 10° NW
Aureole 1 Rocket 4.3 19:43:13 10° SSW 19:49:50 64° WNW 19:54:50 10° NNE
Cosmos 2322 3.8 19:44:39 10° NNW 19:50:18 56° ENE 19:55:53 10° SE
SJ-6B 3.9 19:50:20 19° E 19:51:34 23° ENE 19:54:32 10° NNE
FENGYUN 3A 3.6 19:50:40 10° SSE 19:56:01 70° ENE 20:01:25 10° N
Atlas Centaur 2 3.7 19:53:31 10° SW 19:57:15 22° S 20:01:19 11° SE
Iridium 4 Rocket 3.9 19:53:04 10° SSE 19:58:16 47° E 20:03:48 10° NNE
Thor Agena Rocket 3.7 19:55:21 10° NNE 20:00:17 46° E 20:05:07 10° S
Cosmos 44 Rocket 4.2 19:57:02 10° SSE 20:00:54 25° ESE 20:01:58 23° E
COSMO-SKYMED 1 3.0 19:56:43 10° N 20:01:02 64° WNW 20:05:19 10° SSW
FREGAT/IRIS 3.1 20:00:46 30° ESE 20:01:35 36° ENE 20:04:22 10° N
Gbstr 26 Del rocket 4.2 19:58:18 10° NW 20:03:01 41° NNE 20:06:21 22° ENE
Cosmos 1420 Rocket 4.1 19:58:29 10° NNW 20:03:44 56° ENE 20:08:55 10° SE
NOSS 3 (A) 4.3 20:01:31 10° SSW 20:04:16 86° SE 20:06:02 22° NE
ISS -0.4 20:05:01 10° WSW 20:05:31 10° SW 20:06:02 10° SW
Cosmos 1703 3.6 20:02:44 10° NNW 20:06:39 66° W 20:10:31 10° S
Envisat 4.2 20:09:18 21° ENE 20:09:18 21° ENE 20:13:02 10° NNE
Cosmos 2219 Rocket 3.0 20:07:19 10° N 20:12:15 30° NE 20:13:47 27° E
Sich 1 4.0 20:09:58 10° NNE 20:13:24 28° ENE 20:13:24 28° ENE
APEX 4.0 20:10:54 10° S 20:12:53 25° SSE 20:12:53 25° SSE
Cosmos 1821 Rocket 4.0 20:10:56 10° SSE 20:16:51 53° E 20:22:54 10° NNE
Cosmos 1000 Rocket 4.4 20:11:00 10° N 20:17:13 64° E 20:23:19 10° SSE
Cosmos 1805 Rocket 3.7 20:14:14 10° N 20:18:29 47° ENE 20:20:41 25° SE
Cosmos 1400 Rocket 4.4 20:15:43 10° NNW 20:19:29 37° W 20:23:10 10° SSW
SL-16 R/B 4.4 20:18:35 10° NW 20:23:14 27° WSW 20:27:52 10° SSW
SL-8 R/B 3.6 20:19:28 10° WSW 20:24:18 87° SSE 20:26:18 36° ENE
Cosmos 1934 Rocket 4.2 20:18:24 10° SSE 20:24:25 47° E 20:30:28 10° NNE
Cosmos 2239 Rocket 4.4 20:19:15 10° S 20:25:15 62° E 20:31:19 10° NNE
Cosmos 158 Rocket 3.8 20:20:51 10° S 20:25:49 68° ESE 20:30:59 10° NNE
Cosmos 2333 4.3 20:20:14 10° NNW 20:25:52 57° ENE 20:28:45 29° SE
Cosmos 1908 3.4 20:22:38 10° SSW 20:26:32 72° W 20:30:28 10° N
Cosmos 2237 4.1 20:21:09 10° NNW 20:26:55 88° ENE 20:32:17 12° SSE
Cosmos 1666 Rocket 4.2 20:22:57 10° N 20:26:18 34° NE 20:26:18 34° NE
Aureole 2 4.4 20:25:24 10° NNW 20:28:26 70° WSW 20:29:34 36° S
Cosmos 1726 3.7 20:27:49 10° S 20:29:16 22° SSE 20:29:16 22° SSE
H-2A R/B 2.7 20:31:12 16° S 20:34:11 85° WSW 20:38:07 10° NNW
HJ-1C 3.8 20:35:00 51° NNE 20:35:00 51° NNE 20:37:43 10° N
Cosmos 1633 Rocket 4.1 20:32:09 10° N 20:34:51 30° NE 20:34:51 30° NE
BREEZE M DEB (TANK) 2.9 20:35:48 10° WNW 20:39:03 35° N 20:39:03 35° N
Cosmos 1269 Rocket 3.9 20:36:00 10° S 20:41:13 67° ESE 20:46:03 12° NNE
Cosmos 2237 Rocket 3.2 20:36:57 10° N 20:41:26 29° NE 20:41:26 29° NE
In-Cosmos 22 Rocket 4.4 20:37:56 10° N 20:43:28 48° ENE 20:43:56 47° E
Cosmos 2123 Rocket 3.9 20:38:19 10° N 20:44:28 60° E 20:47:28 31° SSE
CZ-4C R/B 2.1 20:40:40 10° SSW 20:45:41 56° ESE 20:46:17 53° E
ALOS 3.9 20:43:36 10° SSW 20:47:50 34° W 20:52:06 10° NNW
SL-16 R/B 4.1 20:46:52 10° N 20:49:03 15° NNE 20:49:03 15° NNE
Cosmos 1605 Rocket 4.0 20:45:06 10° SSE 20:50:59 50° E 20:56:50 10° NNE
Cosmos 2098 Rocket 3.4 20:46:54 10° SSW 20:51:07 74° W 20:56:34 10° N
USA 267 3.1 20:53:05 40° ENE 20:55:36 70° SE 21:02:07 10° SW
Abrixas rocket 4.4 20:57:18 10° WNW 20:59:11 23° NW 20:59:11 23° NW
BREEZE-M DEB (TANK) 3.0 20:54:41 10° W 21:02:54 61° N 21:03:08 60° NNE
COSMOS 2428 2.9 20:57:23 10° NNW 21:03:04 71° WSW 21:05:17 38° S
Cosmos 1980 4.3 20:59:42 10° NNW 21:04:03 41° NNE 21:04:03 41° NNE
Cosmos 2360 Rocket 4.0 21:01:20 10° NW 21:06:08 29° WSW 21:10:57 10° SSW
Cosmos 2333 Rocket 2.2 21:00:54 10° NNW 21:06:27 66° NE 21:06:27 66° NE
Cosmos 2221 4.4 21:07:28 10° SW 21:11:16 30° WNW 21:15:06 10° NNW
Resurs 01 Rocket 2.8 21:13:47 34° NNW 21:13:47 34° NNW 21:16:19 10° NNW
Spot 2 Rocket 4.0 21:14:31 49° N 21:14:31 49° N 21:18:15 10° N
Cosmos 2219 3.3 21:08:10 10° SSW 21:13:54 77° WNW 21:16:41 32° NNE
DELTA 2 R/B (1) 4.2 21:12:16 10° W 21:17:28 45° SSW 21:17:28 45° SSW
MOS 1-B Rocket 4.0 21:22:21 51° SSW 21:23:41 69° WSW 21:29:39 10° NNW
Cosmos 44 4.5 21:22:44 10° SW 21:25:28 34° WSW 21:25:28 34° WSW
Lacrosse 5 rocket 4.2 21:27:43 10° NNW 21:28:40 11° N 21:28:40 11° N
USA 234 3.5 21:31:01 53° NNE 21:31:01 53° NNE 21:37:11 10° NW
Atlas Centaur 2 4.3 21:41:43 10° SW 21:43:56 17° SSW 21:43:56 17° SSW
Envisat 4.3 21:49:31 37° NW 21:49:31 37° NW 21:52:52 10° NNW
NOSS 0 Rocket 4.4 21:43:46 10° NNW 21:48:55 58° WNW 21:48:55 58° WNW
Gbstr 26 Del rocket 4.5 21:44:56 10° WNW 21:48:55 51° WNW 21:48:55 51° WNW
Cosmos 2219 Rocket 3.3 21:51:04 10° NW 21:55:33 39° W 21:55:33 39° W
Cosmos 2237 Rocket 4.1 22:20:44 10° NW 22:23:17 25° NW 22:23:17 25° NW
CZ-4C R/B 4.5 22:29:52 10° W 22:31:35 18° W 22:31:35 18° W
